This is the latest recevied weather packets stored in our database for station/object PACCTY-2. If no packets are shown the sender has not sent any weather packets the latest 1 day(s).
| Time | Temp. | Humidity | Pressure | Rain* | Wind** | Luminosity | Snow |
|---|---|---|---|---|---|---|---|
| 1777985593 | 12.22° C | - | - | 0 mm | 0 m/s | - | - |
| 1777985292 | 12.22° C | - | - | 0 mm | 0 m/s | - | - |
| 1777984991 | 12.22° C | - | - | 0 mm | 0 m/s | - | - |
| 1777984690 | 12.22° C | - | - | 0 mm | 0 m/s | - | - |
| 1777984389 | 12.22° C | - | - | 0 mm | 0 m/s | - | - |
| 1777984088 | 12.22° C | - | - | 0 mm | 0 m/s | - | - |
| 1777983187 | 12.22° C | - | - | 0 mm | 0 m/s | - | - |
| 1777982884 | 12.22° C | - | - | 0 mm | 0 m/s | - | - |
| 1777982664 | 12.22° C | - | - | 0 mm | 2.24 m/s, 233° | - | - |
| 1777982583 | 12.22° C | - | - | 0 mm | 2.24 m/s, 233° | - | - |
| 1777981981 | 12.22° C | - | - | 0 mm | 4.02 m/s, 256° | - | - |
| 1777981379 | 12.22° C | - | - | 0 mm | 2.68 m/s, 228° | - | - |
| 1777981078 | 12.22° C | - | - | 0 mm | 2.68 m/s, 217° | - | - |
| 1777980175 | 12.22° C | - | - | 0 mm | 2.68 m/s, 236° | - | - |
| 1777979875 | 11.67° C | - | - | 0 mm | 3.13 m/s, 238° | - | - |
| 1777979272 | 11.67° C | - | - | 0 mm | 3.58 m/s, 211° | - | - |
| 1777978671 | 12.22° C | - | - | 0 mm | 2.68 m/s, 221° | - | - |
| 1777978068 | 12.22° C | - | - | 0 mm | 3.58 m/s, 226° | - | - |
| 1777977165 | 12.22° C | - | - | 0 mm | 3.58 m/s, 226° | - | - |
| 1777976263 | 12.22° C | - | - | 0 mm | 4.02 m/s, 238° | - | - |
* Rain latest hour (hover to see other rain measurements)
** Current wind speed in m/s (hover to see current wind gust speed)